sat.trackr.live / text

‹ back to catalog

SHIJIAN-31 (SJ-31)

NORAD 69570 · 2026-136A

PAYLOAD ACTIVE UNKNOWN

§ Identity

Operator
Country
PRC
Launch date
2026-06-16
Launch site
XICLF
Launch vehicle
Mass (kg)
RCS (m²)

External: N2YO · Heavens-Above · Gunter

§ Orbital elements

Epoch: 2026-09-20T04:11:55.468320Z

Period
749.12 min
Inclination
63.4835°
Eccentricity
0.6935962
Mean motion
1.92225658 rev/d
Perigee alt
1,993.7 km
Apogee alt
39,895.9 km
Semi-major
27,323.0 km
B*
0.0000e+0
RAAN
346.2963°
Arg perigee
172.0412°
Mean anomaly
211.3901°
Rev number
191

§ Raw data

SHIJIAN-31 (SJ-31)1 69570U 26136A   26263.17494755 -.00000337  00000+0  00000+0 0  99982 69570  63.4835 346.2963 6935962 172.0412 211.3901  1.92225658  1916

JSON: /api/v1/satellites/69570 · /tle

For live sub-satellite position, see the globe view (requires WebGL).

§ Visibility from observer

Set your observer location to see the next 7 days of passes ≥ 10°. The values pass through the URL so the page stays shareable.

No JS? Fill the form by hand. The geolocation button needs JavaScript.